Regional Weather Roundup
Issued by NWS

Home | Current Version | Previous Version | Graphics & Text | Print | Product List | Glossary On
Versions: 1 2 3 4 5 6 7 8 9 10 11 12 13 14 15 16 17 18 19 20 21 22 23 24 25 26 27 28 29 30 31 32 33 34 35 36 37 38 39 40 41 42 43 44 45 46 47 48 49 50
000
ASUS43 KMKX 270611
RWRWI

WISCONSIN REGIONAL WEATHER ROUNDUP
NATIONAL WEATHER SERVICE MILWAUKEE/SULLIVAN WI
1200 AM CST SAT DEC 27 2014

NOTE: "FAIR" INDICATES FEW OR NO CLOUDS BELOW 12,000 FEET WITH NO
SIGNIFICANT WEATHER AND/OR OBSTRUCTIONS TO VISIBILITY.

WIZ001-002-006>008-014>016-023>028-270700-
NORTHWEST WISCONSIN

CITY           SKY/WX    TMP DP  RH WIND       PRES   REMARKS
SUPERIOR ARPT  CLOUDY    28  19  70 N5        30.11F WCI  23
6HR MIN TEMP:  28; 6HR MAX TEMP:  31;

ASHLAND        LGT SNOW  29  27  92 N7        30.08F FOG     WCI  22
6HR MIN TEMP:  29; 6HR MAX TEMP:  30; 6HR PCP:  0.01;

HAYWARD        LGT SNOW  28  25  88 N5        30.04F FOG     WCI  23
6HR MIN TEMP:  28; 6HR MAX TEMP:  30; 6HR PCP:  0.03;

SIREN          LGT SNOW  27  26  94 N6        30.07F WCI  21
6HR MIN TEMP:  27; 6HR MAX TEMP:  30;

CUMBERLAND     LGT SNOW  28  27  93 N6        30.03F WCI  22
RICE LAKE      LGT SNOW  29  27  90 N9        30.05S WCI  21
6HR MIN TEMP:  29; 6HR MAX TEMP:  31;

CHETEK         FLURRIES  29  27  92 N5        30.02F WCI  24
6HR MIN TEMP:  29; 6HR MAX TEMP:  32; 6HR PCP:  0.01;

LADYSMITH      LGT SNOW  30  28  93 N7        30.03S WCI  23
6HR MIN TEMP:  30; 6HR MAX TEMP:  32;

EAU CLAIRE     LGT SNOW  30  28  92 N9        29.99F VSB 1   WCI  22
6HR MIN TEMP:  30; 6HR MAX TEMP:  33; 6HR PCP:  0.06;

MENOMONIE      LGT SNOW  31  30  95 N10       30.00F WCI  22
6HR MIN TEMP:  31; 6HR MAX TEMP:  33;

NEW RICHMOND   LGT SNOW  28  28  99 N8        30.03F WCI  20
6HR MIN TEMP:  28; 6HR MAX TEMP:  31;

OSCEOLA        LGT SNOW  28  28 100 N7        30.07F WCI  21
6HR MIN TEMP:  28; 6HR MAX TEMP:  31;

$$

WIZ003>005-009-010-017-018-270700-
NORTH CENTRAL WISCONSIN

CITY           SKY/WX    TMP DP  RH WIND       PRES   REMARKS
MANITOWISH WTR LGT SNOW  28  28 100 N3        29.99F
6HR MIN TEMP:  28; 6HR MAX TEMP:  29;

ARBOR VITAE    LGT SNOW  32  30  94 NE3       29.99F
6HR MIN TEMP:  32; 6HR MAX TEMP:  32;

WOODRUFF       LGT SNOW  32  30  94 NE3       29.99F
6HR MIN TEMP:  32; 6HR MAX TEMP:  32;

RHINELANDER    LGT SNOW  29  28  96 NE6       29.98F VSB 1   WCI  23
6HR MIN TEMP:  29; 6HR MAX TEMP:  29; 6HR PCP:  0.04;

EAGLE RIVER    LGT SNOW  29  29 100 CALM      29.98F
6HR MIN TEMP:  29; 6HR MAX TEMP:  30;

LAND O LAKES   LGT SNOW  30  29  98 N3        30.00F
6HR MIN TEMP:  30; 6HR MAX TEMP:  31;

PHILLIPS       LGT SNOW  28  27  96 N6        30.00S WCI  21
6HR MIN TEMP:  28; 6HR MAX TEMP:  30; 6HR PCP:  0.01;

TOMAHAWK       LGT SNOW  30  28  95 CALM      29.98F
6HR MIN TEMP:  30; 6HR MAX TEMP:  31; 6HR PCP:  0.03;

MEDFORD        LGT SNOW  30  29  96 NE5       29.97S VSB 3/4 WCI  25
6HR MIN TEMP:  30; 6HR MAX TEMP:  31; 6HR PCP:  0.04;

MERRILL        LGT SNOW  31  31 100 NE3       29.98F VSB 1
6HR MIN TEMP:  31; 6HR MAX TEMP:  32; 6HR PCP:  0.01;

$$

WIZ029-030-035-036-043>047-270700-
CENTRAL WISCONSIN

CITY           SKY/WX    TMP DP  RH WIND       PRES   REMARKS
WAUSAU         LGT SNOW  33  31  92 NE3       29.96F FOG
6HR MIN TEMP:  32; 6HR MAX TEMP:  34; 6HR PCP:  0.05;

MOSINEE        LGT SNOW  32  32 100 NE3       29.98S
MARSHFIELD     LGT SNOW  33  32  96 NE8       29.96F FOG     WCI  26
6HR MIN TEMP:  33; 6HR MAX TEMP:  34; 6HR PCP:  0.02;

STEVENS POINT  CLOUDY    31  31  99 E5        29.97F FOG     WCI  26
6HR MIN TEMP:  31; 6HR MAX TEMP:  31;

WAUPACA        FOG       35  34  96 CALM      29.99F VSB 3/4
6HR MIN TEMP:  34; 6HR MAX TEMP:  35;

WAUTOMA        FOG       33  33 100 CALM      29.98F VSB 1/4
6HR MIN TEMP:  33; 6HR MAX TEMP:  34;

WISC RAPIDS    CLOUDY    33  30  88 NE7       29.97F WCI  27
6HR MIN TEMP:  33; 6HR MAX TEMP:  34; 6HR PCP: TRACE;

CAMP DOUGLAS   NOT AVBL
$$

WIZ011>013-019>022-031-037>040-048>050-270700-
NORTHEAST WISCONSIN

CITY           SKY/WX    TMP DP  RH WIND       PRES   REMARKS
ANTIGO         LGT SNOW  31  31 100 NE6       29.96F WCI  25
6HR MIN TEMP:  31; 6HR MAX TEMP:  32;

SHAWANO        LGT RAIN  34  33  96 NE3       30.00F VSB 3/4
6HR MIN TEMP:  34; 6HR MAX TEMP:  35;

OCONTO         CLOUDY    33  33 100 NE3       30.01F
6HR MIN TEMP:  33; 6HR MAX TEMP:  35;

STURGEON BAY   CLOUDY    36  34  93 CALM      30.03F
6HR MIN TEMP:  36; 6HR MAX TEMP:  36;

GREEN BAY      CLOUDY    34  33  96 NE8       30.00F FOG     WCI  27
6HR MIN TEMP:  34; 6HR MAX TEMP:  36;

MANITOWOC      CLOUDY    36  36 100 CALM      30.00F FOG
6HR MIN TEMP:  34; 6HR MAX TEMP:  38;

APPLETON       CLOUDY    34  34 100 E6        29.99F FOG     WCI  29
CLINTONVILLE   FOG       32  32 100 NE5       29.99F VSB 1/2 WCI  27
OSHKOSH        MOCLDY    33  31  92 NE7       29.96F FOG     WCI  27
6HR MIN TEMP:  33; 6HR MAX TEMP:  38;

$$

WIZ032>034-041-042-053>061-270700-
SOUTHWEST WISCONSIN

CITY           SKY/WX    TMP DP  RH WIND       PRES   REMARKS
LA CROSSE      CLOUDY    34  32  92 NW8       29.97F FOG     WCI  27
6HR MIN TEMP:  33; 6HR MAX TEMP:  36; 6HR PCP:  0.05;

SPARTA         CLOUDY    33  33 100 N5        29.96S FOG     WCI  29
6HR MIN TEMP:  33; 6HR MAX TEMP:  37;

VIROQUA        CLOUDY    33  33 100 E3        29.93S
6HR MIN TEMP:  33; 6HR MAX TEMP:  35;

BOSCOBEL       CLOUDY    32  30  92 CALM      29.96F
6HR MIN TEMP:  28; 6HR MAX TEMP:  38;

PRAIRIE DU CHI CLOUDY    33  31  94 CALM      29.95F
6HR MIN TEMP:  30; 6HR MAX TEMP:  38;

PLATTEVILLE    CLOUDY    38  36  90 SE8       29.95F WCI  32
6HR MIN TEMP:  36; 6HR MAX TEMP:  40;

$$

WIZ056-057-062-063-064-067-068-270700-
SOUTH CENTRAL WISCONSIN

CITY           SKY/WX    TMP DP  RH WIND       PRES   REMARKS
REEDSBURG      CLOUDY    32  32 100 NE5       29.94F WCI  27
6HR MIN TEMP:  28; 6HR MAX TEMP:  37;

BARABOO/DELLS  CLOUDY    32  31  97 CALM      29.95F FOG
6HR MIN TEMP:  30; 6HR MAX TEMP:  35;

LONE ROCK      MOCLDY    35  30  82 CALM      29.96F
6HR MIN TEMP:  31; 6HR MAX TEMP:  39;

MINERAL POINT  CLOUDY    37  36  93 CALM      29.94F
MADISON        CLOUDY    35  32  88 CALM      29.96F
6HR MIN TEMP:  32; 6HR MAX TEMP:  37;

MIDDLETON      CLOUDY    36  35  97 CALM      29.96F
6HR MIN TEMP:  32; 6HR MAX TEMP:  38;

WATERTOWN      CLOUDY    36  36  99 CALM      29.98S
6HR MIN TEMP:  32; 6HR MAX TEMP:  39;

MONROE         CLOUDY    41  37  87 SE5       29.95F
JANESVILLE     CLOUDY    41  37  87 CALM      29.97F
$$

WIZ051-052-058>065-066-070>072-270700-
SOUTHEAST WISCONSIN

CITY           SKY/WX    TMP DP  RH WIND       PRES   REMARKS
MILWAUKEE      CLOUDY    43  38  82 S6        29.99F
6HR MIN TEMP:  36; 6HR MAX TEMP:  43;

WAUKESHA       CLOUDY    37  36  93 S3        29.99S
MILWAUKEE/TIMM CLOUDY    37  34  87 CALM      30.00F
RACINE         CLOUDY    45  39  79 S5        30.01F
6HR MIN TEMP:  39; 6HR MAX TEMP:  45;

BURLINGTON     CLOUDY    36  35  94 CALM      29.99S
6HR MIN TEMP:  33; 6HR MAX TEMP:  38;

KENOSHA        CLOUDY    44  40  85 S5        30.00F
6HR MIN TEMP:  42; 6HR MAX TEMP:  46;

FOND DU LAC    MOCLDY    32  30  92 CALM      29.97F FOG
6HR MIN TEMP:  32; 6HR MAX TEMP:  35;

SHEBOYGAN      MOCLDY    34  32  92 N5        29.99F FOG     WCI  30
6HR MIN TEMP:  31; 6HR MAX TEMP:  36;

WEST BEND      PTCLDY    32  32 100 CALM      29.99F
JUNEAU         CLOUDY    35  33  93 SE7       29.98S WCI  29
6HR MIN TEMP:  33; 6HR MAX TEMP:  37;

$$

LSZ147-162-270700-
LAKE SUPERIOR

STATION/POSITION TIME  TEMP    WIND        PRES    WAVE
                       AIR SEA DIR/SP/G            HT/PER
                 (UTC) (F)     (DEG/KT/KT) (MB)    (FT/S)
DEVILS ISLAND    0600   30      10/ 14/ 16 1019.8F
PORT WING        0500   31      10/  9/ 12 1019.6S
SAXON HARBOR     0500   31        CALM     1018.6S
$$

LMZ867-665-643>646-270700-
LAKE MICHIGAN

STATION/POSITION TIME  TEMP    WIND        PRES    WAVE
                       AIR SEA DIR/SP/G            HT/PER


USA.gov is the U.S. government's official web portal to all federal, state and local government web resources and services.